Theta_e
317 318 318 318 318 317 316 316 316 316 315 315 315 319 319 318 317 318 322 326 327 327 328 328 329 329 329 330 336 335 339 342 341 340 339 339 340 341 338 340 339 338 341 341 338
317 318 319 319 319 318 317 316 316 316 315 315 316 321 319 318 318 320 327 327 327 327 328 329 327 328 333 332 337 336 336 340 338 338 338 340 340 341 342 341 341 341 340 335 331
319 319 320 320 320 319 318 316 316 316 316 316 317 321 318 318 319 329 329 328 327 328 328 326 326 333 337 336 337 337 335 335 338 338 339 339 341 341 341 342 341 341 336 330 326
319 319 320 321 320 320 318 316 316 317 318 316 317 321 319 321 335 331 328 328 329 328 327 327 332 336 335 334 336 335 338 338 339 339 339 339 341 342 342 342 341 339 332 327 327
319 320 321 321 321 321 319 316 317 317 317 317 318 321 320 326 331 331 328 330 329 327 326 327 332 335 334 338 339 335 337 338 339 341 341 342 342 342 342 342 340 335 330 329 328
318 319 321 321 321 321 319 316 318 317 318 317 318 321 322 327 328 328 328 330 327 326 326 326 327 338 337 339 338 338 337 337 338 341 342 341 342 342 343 342 340 334 331 329 329
317 319 320 321 322 321 319 316 319 319 317 317 317 321 322 328 328 327 330 328 326 326 326 331 336 337 335 333 335 336 336 336 337 342 341 342 342 344 343 342 341 337 332 331 330
317 318 320 321 322 322 318 316 321 318 318 318 316 321 323 328 327 326 327 326 326 326 327 329 336 335 337 336 335 339 339 344 338 341 341 336 344 344 343 343 342 339 334 333 332
316 318 319 321 321 321 317 320 322 320 319 317 318 322 328 327 326 327 326 326 327 328 328 329 335 336 335 332 335 338 345 344 342 340 338 338 341 343 342 343 341 340 338 334 333
315 317 319 321 321 319 319 322 322 321 319 316 325 325 326 327 326 328 328 328 328 329 328 329 334 336 334 331 337 339 343 341 343 339 338 339 341 342 342 342 341 341 340 336 335
314 316 319 320 321 318 320 322 321 325 321 323 325 325 328 329 327 327 328 328 327 327 327 329 330 332 334 334 336 337 335 339 339 336 334 336 344 344 342 342 342 341 341 340 338
314 315 318 320 320 320 321 321 320 320 321 322 324 324 327 328 327 327 327 327 327 327 328 328 329 332 333 336 336 333 334 333 334 336 333 337 342 343 341 341 341 341 341 342 340
313 315 317 319 319 322 321 321 320 321 322 325 324 324 325 326 327 328 328 328 327 327 328 328 329 331 332 333 334 334 334 334 340 337 337 337 337 345 341 340 340 341 341 341 339
313 314 316 318 319 319 322 320 320 320 324 329 324 323 324 326 326 328 328 328 328 327 327 328 329 330 332 335 334 335 334 335 335 340 341 339 338 345 342 341 340 339 340 339 339
313 314 315 316 317 320 322 321 320 323 335 325 322 323 325 326 327 330 329 329 327 328 328 328 329 331 332 336 335 334 335 335 336 338 339 340 338 344 341 342 339 339 340 340 339
313 314 315 316 317 321 321 320 322 326 335 324 324 325 324 325 326 329 329 329 329 328 327 327 330 331 332 333 332 334 338 339 337 338 341 340 339 344 342 342 340 340 340 340 339
313 314 315 315 317 318 320 322 326 329 330 326 323 324 323 324 325 328 328 328 326 328 328 329 329 330 334 334 333 333 335 337 337 345 346 340 341 339 336 334 333 340 341 339 339
313 314 315 316 318 322 321 323 332 333 333 327 326 324 323 325 324 326 328 327 328 327 327 328 331 335 335 334 333 335 335 335 338 341 337 339 342 339 334 334 334 335 341 338 336
313 314 316 319 324 321 321 329 332 333 330 331 328 325 324 325 325 325 327 329 328 327 328 329 332 335 335 333 334 336 334 335 338 336 337 336 341 335 335 336 335 335 335 337 336
313 314 316 323 325 320 323 327 331 329 328 330 332 329 326 325 325 325 326 328 329 330 330 330 337 335 335 335 334 333 334 338 337 337 339 338 339 336 336 338 335 336 335 336 337
314 319 324 325 324 321 324 327 328 326 326 330 331 332 334 333 327 327 330 329 329 330 330 332 334 337 334 335 335 334 339 338 339 336 340 342 336 335 334 334 334 333 335 335 333
315 325 326 324 321 323 323 327 325 327 327 328 329 332 334 335 335 331 335 334 332 331 335 335 333 335 336 335 334 335 336 336 340 339 337 338 336 337 334 334 335 335 335 335 335
321 323 326 323 322 322 327 328 324 327 328 330 331 333 334 334 334 334 334 332 330 339 338 338 341 340 333 334 335 335 333 335 337 339 337 338 337 336 337 336 334 332 335 334 334
319 327 324 324 323 325 326 331 325 324 326 326 330 332 333 335 333 332 335 332 332 336 332 338 337 338 338 335 332 332 335 336 336 337 336 335 336 340 339 335 334 333 335 332 329
317 326 327 328 325 323 326 330 330 327 326 327 332 333 334 336 338 333 337 333 334 332 334 335 337 338 335 334 333 334 335 334 337 338 336 333 339 339 339 335 335 333 332 332 331
319 326 325 328 329 330 325 328 329 329 328 328 331 332 334 334 338 339 339 341 342 335 334 337 337 339 338 336 336 335 334 333 334 334 333 335 337 336 337 335 333 331 331 332 333
317 321 328 328 330 330 328 329 328 328 328 326 329 334 339 340 338 337 333 333 337 340 339 345 340 344 342 339 336 335 334 335 334 333 335 336 337 336 336 334 332 331 331 333 333
Wind_Speed
15 18 20 23 25 27 28 27 24 23 17 14 11 8 6 3 2 3 5 5 5 8 6 8 12 18 11 7 17 12 4 2 4 5 4 23 12 18 24 19 8 9 17 13 14
14 17 19 22 24 26 28 27 25 24 16 13 11 8 4 2 3 7 5 4 8 6 4 7 13 21 13 19 3 9 5 12 20 13 13 23 24 25 19 22 17 16 17 16 10
13 16 18 21 23 26 28 27 24 22 15 12 10 6 2 1 1 5 8 8 8 5 4 6 11 9 12 22 9 3 5 8 10 22 29 22 23 24 21 13 21 21 19 14 14
13 15 17 20 23 26 28 28 24 22 15 11 8 5 2 2 3 6 6 6 2 3 4 8 12 16 7 5 10 10 19 21 20 31 26 16 23 19 21 15 21 19 18 16 11
12 15 17 20 22 25 28 27 25 19 13 9 7 5 1 3 7 8 4 3 1 4 6 8 6 1 7 11 21 9 16 20 18 29 26 24 17 15 19 19 19 18 17 12 12
13 14 16 19 22 24 27 25 22 17 12 8 5 5 3 5 8 8 6 4 2 5 11 18 24 28 3 6 7 8 14 17 3 15 20 17 20 14 17 18 18 20 15 17 14
13 14 16 18 21 24 27 24 21 18 8 7 4 6 8 6 7 1 4 3 1 8 15 15 26 16 9 9 9 22 8 10 6 15 10 23 9 10 22 20 19 20 21 14 19
12 14 15 18 21 24 26 21 19 12 5 6 2 4 7 3 6 6 1 4 4 8 9 4 14 9 7 6 6 7 7 6 7 11 7 5 3 19 23 21 21 20 23 18 16
12 13 15 17 20 24 24 18 16 12 6 4 2 1 9 7 9 9 7 9 8 7 8 7 1 2 10 3 5 6 3 6 11 14 7 6 4 22 25 23 23 20 21 21 19
12 13 14 16 19 23 18 20 17 5 5 1 3 2 11 14 8 9 9 7 13 10 10 10 3 2 3 4 4 6 7 10 11 8 7 13 8 19 27 24 23 26 22 23 23
12 12 13 15 17 17 16 23 23 4 21 14 3 13 14 9 11 10 8 5 9 15 5 18 2 10 12 12 3 8 9 13 15 12 2 2 8 19 26 24 21 25 29 26 28
12 12 13 13 15 10 15 13 12 13 11 13 17 20 22 5 7 8 9 4 5 7 13 6 12 21 2 11 10 2 3 5 7 4 5 7 3 16 25 23 20 32 27 25 24
12 11 12 12 12 8 16 11 15 14 5 14 15 15 14 9 8 13 16 11 9 9 11 5 12 5 2 6 7 3 3 6 11 5 4 5 9 18 17 22 24 23 23 24 33
11 11 12 13 9 12 12 14 15 15 3 5 11 11 13 13 6 19 19 15 7 10 12 9 17 8 11 6 3 2 2 5 17 7 4 5 5 2 13 14 19 27 28 24 32
11 11 8 11 13 10 10 21 15 9 3 10 11 8 17 15 4 13 15 19 9 11 5 16 11 8 5 1 1 3 8 13 9 5 3 1 3 14 20 8 11 22 30 32 35
11 12 9 11 13 7 16 19 12 2 5 8 9 2 6 17 19 16 20 24 17 11 13 12 28 4 2 6 5 4 6 4 4 4 3 6 6 5 6 11 11 18 28 33 35
11 12 11 12 8 12 11 18 2 3 4 7 12 9 9 7 11 9 9 7 6 2 8 11 13 5 5 6 6 7 7 4 5 1 5 2 5 9 11 6 6 16 28 24 32
12 13 12 12 7 6 10 4 3 9 10 6 8 10 10 8 8 8 3 6 6 8 5 4 12 5 9 5 7 2 6 5 4 3 5 3 3 4 8 11 16 10 24 22 23
11 10 12 2 1 4 7 2 4 7 12 7 6 3 7 6 7 7 4 5 8 10 8 4 5 4 4 6 11 1 5 5 2 4 4 3 5 7 17 19 11 10 2 26 24
11 11 14 3 5 5 1 6 4 5 9 7 5 6 7 7 8 9 9 9 9 12 18 9 2 3 3 7 5 7 2 11 8 4 4 6 3 5 7 13 11 7 11 4 28
10 6 1 11 8 4 3 6 10 8 5 6 6 7 10 7 9 5 8 9 13 13 14 9 6 1 5 2 2 7 4 4 4 3 0 2 6 6 7 6 6 8 2 21 42
4 4 11 13 3 5 4 6 9 6 6 3 5 5 6 8 5 1 4 4 14 19 2 5 4 3 8 3 6 6 9 8 4 4 3 2 6 6 5 9 5 10 15 26 43
4 8 8 10 3 4 12 12 1 3 6 6 4 8 6 6 6 7 5 6 14 7 3 3 3 4 8 5 2 4 5 6 5 4 4 4 5 3 1 6 7 26 29 31 40
4 3 8 13 15 7 7 7 5 9 5 5 7 8 7 7 2 6 3 2 9 6 4 4 2 5 5 8 6 7 5 5 7 4 4 6 4 5 3 7 18 13 11 10 11
5 8 5 4 8 13 13 7 8 3 9 8 4 7 7 4 7 3 8 3 8 6 3 4 1 3 6 8 15 4 1 13 9 8 7 7 6 8 6 6 14 11 4 6 19
5 5 16 17 5 4 4 2 9 9 5 5 5 9 9 3 4 6 7 6 5 4 2 1 2 4 7 10 14 3 6 8 3 7 3 7 8 9 16 21 13 11 12 8 12
6 17 10 12 3 3 5 5 8 12 7 6 8 7 7 9 17 16 13 15 4 2 1 3 2 2 6 9 10 7 14 8 6 7 5 6 9 21 12 15 17 9 5 8 14
Wind_Direction
1 4 5 8 10 7 5 0 359 354 350 338 338 343 332 313 253 215 206 226 288 318 334 317 308 312 292 201 141 125 88 119 277 198 142 114 119 105 118 151 193 144 125 106 110
355 358 359 1 3 4 1 357 356 352 352 337 335 340 330 301 236 219 197 264 273 315 343 320 330 333 15 155 248 116 131 174 213 199 120 114 112 142 139 134 128 121 112 103 85
346 350 352 354 358 358 358 354 353 352 355 340 332 330 323 248 242 246 249 260 288 301 323 307 334 334 47 73 5 165 176 99 144 121 111 119 122 130 129 129 146 141 117 104 106
333 340 346 346 352 354 353 350 348 346 345 340 327 315 268 183 21 358 229 254 264 325 336 17 18 350 354 9 199 84 68 81 84 107 99 107 142 115 119 141 130 123 122 123 117
322 331 338 340 345 350 349 347 345 346 339 341 320 297 257 288 291 311 249 176 326 323 323 340 250 352 36 326 52 20 84 72 90 119 121 122 115 114 113 113 120 126 126 123 125
314 323 331 334 340 346 345 343 342 341 337 339 310 285 285 282 328 307 157 162 18 346 351 307 280 102 17 353 70 1 26 28 62 112 127 121 128 132 142 139 143 146 136 138 137
309 318 326 331 337 343 341 339 336 327 317 338 297 272 280 254 320 327 182 161 56 346 303 63 86 94 234 323 355 45 22 7 329 136 134 144 167 139 155 155 161 155 151 150 154
305 315 323 330 336 340 339 337 338 340 307 322 281 259 268 275 216 290 297 277 285 272 293 332 78 96 180 173 38 55 67 353 284 142 179 149 188 149 166 174 177 170 166 165 177
300 311 321 329 337 338 340 338 331 326 313 305 106 315 281 266 228 205 207 260 263 292 303 306 298 178 100 136 65 3 102 233 295 225 167 188 180 165 178 190 175 181 174 174 170
296 308 318 328 338 340 346 353 344 342 358 117 150 300 253 240 242 207 188 251 287 274 294 252 195 66 61 106 192 173 166 222 214 191 186 193 209 164 180 200 177 182 189 184 186
293 304 314 328 339 341 354 9 12 34 324 271 274 242 302 222 178 196 184 281 274 295 277 280 101 253 218 212 230 173 195 189 213 230 188 333 163 174 178 205 196 182 194 203 196
292 300 310 326 339 337 344 7 356 322 307 266 265 269 247 145 173 203 187 212 269 271 284 311 238 233 188 201 201 23 40 288 323 196 95 21 196 185 181 200 200 176 198 206 194
289 299 309 319 325 324 328 333 347 333 280 292 247 245 236 233 254 220 199 211 253 287 284 278 278 321 30 74 68 267 272 54 71 16 66 14 326 167 194 193 198 191 200 200 183
284 295 311 317 316 324 35 350 340 327 320 251 199 237 230 218 244 238 221 212 216 250 276 279 309 306 95 114 132 253 208 84 43 56 307 31 309 338 173 198 202 198 198 195 186
280 287 305 316 313 338 342 342 324 328 331 151 189 199 202 185 245 212 232 213 244 268 289 278 305 354 9 75 147 233 74 99 94 121 79 108 114 336 334 219 208 198 200 202 191
273 282 287 292 295 322 347 327 315 17 249 173 153 169 210 207 233 222 230 206 226 260 281 280 296 262 273 5 349 67 105 33 65 99 19 235 121 238 213 235 227 201 206 205 192
269 276 278 281 281 312 335 329 5 224 177 140 161 187 221 194 233 225 186 193 187 266 266 287 285 314 49 348 349 45 48 352 1 336 243 99 61 234 269 247 30 190 198 201 188
270 275 276 271 314 351 348 348 254 278 258 140 168 164 192 200 216 254 241 209 225 228 284 302 317 12 359 342 277 112 147 147 240 312 262 189 216 229 280 46 33 360 199 182 174
276 274 275 209 138 357 311 298 250 359 341 16 315 181 211 199 155 204 215 213 214 201 216 250 274 223 280 230 317 106 24 178 151 311 16 156 307 300 63 64 63 306 353 184 188
285 288 268 215 193 216 116 248 255 36 351 349 340 259 214 197 171 159 198 222 241 234 207 252 178 201 293 306 45 111 36 21 350 357 315 333 298 250 134 168 219 241 258 199 206
299 309 105 154 214 194 213 252 308 73 357 21 342 310 341 3 173 209 218 224 205 237 228 201 163 192 111 253 66 25 42 84 191 215 158 275 265 231 190 171 156 44 59 20 356
297 258 177 188 171 214 228 249 338 351 334 294 302 306 4 337 333 174 78 60 8 214 344 348 142 156 207 179 114 143 177 156 161 255 206 195 293 23 112 123 95 344 45 15 14
264 268 190 183 219 256 286 264 189 312 293 352 322 346 351 334 351 14 84 39 48 58 47 326 7 18 343 22 301 202 228 115 109 63 224 133 261 30 111 72 70 38 15 5 11
283 283 205 210 235 282 294 266 206 218 310 319 308 318 311 313 297 306 1 136 88 97 64 60 77 142 205 253 264 299 219 155 155 128 198 223 217 247 273 81 75 56 5 21 336
230 257 310 205 229 223 255 316 304 173 198 270 295 251 271 314 346 324 350 96 129 133 108 98 110 335 306 314 303 322 168 267 193 166 177 276 160 222 154 148 117 130 24 98 148
261 331 336 307 327 244 225 254 297 295 171 231 249 285 291 32 1 20 29 24 40 327 132 130 270 347 313 296 310 327 258 300 345 95 193 49 52 100 126 145 149 188 191 165 211
262 299 283 288 267 313 190 205 270 273 336 310 324 342 39 19 350 333 328 320 290 16 236 142 176 49 289 313 322 341 353 334 66 43 61 56 118 137 144 143 146 148 110 63 54